Home > Weather > Gorgan > Past weeks

Flag for Iran Weather for the Past 2 Weeks in Gorgan, Iran

Now
41 °F

Clear.


Feels Like: 36 °F
Forecast: 36 / 65 °F
Wind: 7 mph from East

Location: Gorgan Airport

Current Time: Feb 13, 2016 at 7:12:39 PM

Latest Report: Feb 13, 2016 at 6:30 PM


Visibility: 10 mi

Pressure: 30.27 "Hg

Humidity: 81%

Dew point: 36 °F

Location of GorganLocation

Historic Weather in Gorgan — Graph

°F

Gorgan Temperature Yesterday

Maximum temperature yesterday: 52 °F (at 1:30 PM)
Minimum temperature yesterday: 28 °F (at 6:30 AM)
Average temperature yesterday: 39 °F

High & Low Weather Summary for the Past Weeks

 TemperatureHumidityPressure
High77 °F (Feb 6, 1:30 PM)100% (Jan 29, 9:30 PM)30.60 "Hg (Jan 29, 9:30 PM)
Low27 °F (Jan 30, 6:30 AM)36% (Jan 30, 2:30 PM)29.77 "Hg (Feb 6, 5:30 PM)
Average44 °F84%30.27 "Hg
* Reported Jan 29 5:30 PM — Feb 13 5:30 PM, Gorgan, Weather by CustomWeather, © 2016

Note: Actual official high and low records may vary slightly from our data, if they occured in-between our weather recording intervals... More about our weather records

Advertising

Gorgan Weather History for the Previous 24 Hours

 ConditionsComfort  
Time TempWeatherWind HumidityBarometerVisibility
5:30 PM
Sat, Feb 13
48 °FSunny.9 mph71%30.27 "Hg10 mi
4:30 PM54 °FSunny.12 mph77%30.27 "Hg10 mi
3:30 PM55 °FSunny.9 mph44%30.27 "Hg10 mi
2:30 PM55 °FSunny.12 mph47%30.27 "Hg10 mi
1:30 PM55 °FSunny.12 mph47%30.27 "Hg10 mi
12:30 PM54 °FSunny.12 mph54%30.30 "Hg10 mi
11:30 AM52 °FSunny.12 mph62%30.33 "Hg10 mi
10:30 AM48 °FSunny.7 mph71%30.36 "Hg10 mi
9:30 AM43 °FSunny.No wind81%30.36 "Hg10 mi
8:30 AM36 °FSunny.No wind100%30.36 "Hg10 mi
7:30 AM28 °FSunny.No wind100%30.33 "Hg10 mi
6:30 AM30 °FClear.No wind93%30.33 "Hg10 mi
5:30 AM28 °FClear.No wind100%30.30 "Hg10 mi
4:30 AM28 °FClear.No wind100%30.30 "Hg10 mi
3:30 AM30 °FClear.No wind100%30.30 "Hg10 mi
2:30 AM30 °FClear.No wind100%30.33 "Hg10 mi
1:30 AM32 °FClear.No wind93%30.33 "Hg10 mi
12:30 AM32 °FClear.No wind87%30.33 "Hg10 mi
11:30 PM
Fri, Feb 12
32 °FClear.No wind93%30.33 "Hg10 mi
10:30 PM34 °FClear.No wind93%30.33 "Hg10 mi
10:00 PM36 °FClear.No wind93%30.33 "Hg10 mi
9:30 PM37 °FClear.9 mph93%30.33 "Hg10 mi
9:00 PM37 °FClear.7 mph87%30.33 "Hg10 mi
8:30 PM37 °FClear.7 mph93%30.33 "Hg10 mi
8:00 PM37 °FClear.7 mph93%30.36 "Hg10 mi
7:30 PM39 °FClear.5 mph87%30.33 "Hg10 mi
7:00 PM39 °FClear.7 mph87%30.33 "Hg10 mi
Weather by CustomWeather, © 2016

See weather overviewHow to use our weather pages